Weather observations for the past three days for
Batesville Panola County
| Date | Time (cdt) | Wind (kph) | Vis. (km) | Weather | Sky Cond. | Temperature (ºC) | Relative Humidity | Wind Chill (°C) | Heat Index (°C) | Pressure | Precipitation (cm) | ||||||
|---|---|---|---|---|---|---|---|---|---|---|---|---|---|---|---|---|---|
| Air | Dwpt | 6 hour | altimeter (cm) | sea level (mb) | 1 hr | 3 hr | 6 hr | ||||||||||
| Max. | Min. | ||||||||||||||||
| 07 | 13:55 | Calm | 16.09 | Fair | CLR | 21 | 8 | 43% | 76.23 | 0.0 | |||||||
| 07 | 13:35 | Vrbl 9 G 24 | 16.09 | Fair | CLR | 20 | 7 | 43% | 76.25 | 0.0 | |||||||
| 07 | 13:15 | Vrbl 11 | 16.09 | Fair | CLR | 20 | 8 | 46% | 76.25 | 0.0 | |||||||
| 07 | 12:55 | N 11 | 16.09 | Fair | CLR | 20 | 7 | 43% | 76.25 | 0.0 | |||||||
| 07 | 12:35 | NW 13 | 16.09 | Fair | CLR | 19 | 8 | 49% | 76.25 | 0.0 | |||||||
| 07 | 12:15 | Vrbl 7 | 16.09 | Fair | CLR | 19 | 9 | 52% | 76.28 | 0.0 | |||||||
| 07 | 11:55 | N 13 | 16.09 | Fair | CLR | 19 | 8 | 49% | 76.3 | 0.0 | 0.05 | ||||||
| 07 | 11:35 | Vrbl 9 G 20 | 16.09 | Fair | CLR | 18 | 8 | 52% | 76.3 | 0.0 | |||||||
| 07 | 11:15 | Vrbl 9 | 16.09 | Fair | CLR | 18 | 8 | 52% | 76.33 | 0.0 | |||||||
| 07 | 10:55 | Vrbl 9 | 16.09 | Fair | CLR | 18 | 9 | 56% | 76.3 | 0.0 | |||||||
| 07 | 10:35 | Vrbl 11 | 16.09 | Fair | CLR | 18 | 9 | 56% | 76.33 | 0.0 | |||||||
| 07 | 10:15 | Vrbl 7 G 20 | 16.09 | Fair | CLR | 17 | 9 | 60% | 76.33 | 0.0 | |||||||
| 07 | 09:50 | NE 11 G 20 | 16.09 | Fair | CLR | 17 | 9 | 60% | 76.35 | 0.0 | |||||||
| 07 | 09:35 | Vrbl 7 G 19 | 16.09 | Fair | CLR | 17 | 10 | 64% | 76.35 | 0.0 | |||||||
| 07 | 09:15 | Vrbl 9 | 16.09 | Fair | CLR | 16 | 9 | 63% | 76.33 | 0.0 | |||||||
| 07 | 08:55 | Vrbl 6 | 16.09 | Fair | CLR | 15 | 10 | 72% | 76.3 | 0.0 | |||||||
| 07 | 08:35 | Vrbl 6 | 16.09 | Fair | CLR | 14 | 10 | 77% | 76.3 | 0.0 | |||||||
| 07 | 08:15 | Vrbl 6 | 16.09 | Fair | CLR | 14 | 10 | 77% | 76.28 | 0.0 | |||||||
| 07 | 07:55 | Vrbl 7 | 16.09 | Fair | CLR | 13 | 10 | 82% | 76.28 | 0.0 | |||||||
| 07 | 07:35 | Vrbl 7 | 16.09 | Fair | CLR | 12 | 10 | 88% | 76.28 | 0.0 | |||||||
| 07 | 07:15 | Calm | 16.09 | Fair | CLR | 11 | 10 | 94% | 76.25 | 0.0 | |||||||
| 07 | 06:55 | N 7 | 16.09 | Fair | CLR | 11 | 10 | 94% | 76.25 | 0.0 | |||||||
| 07 | 06:35 | N 11 | 16.09 | Fair | CLR | 11 | 10 | 94% | 76.23 | 0.0 | |||||||
| 07 | 06:15 | N 9 | 16.09 | Fair | CLR | 11 | 10 | 94% | 76.17 | 0.0 | |||||||
| 07 | 05:55 | N 9 | 16.09 | Fair | CLR | 11 | 10 | 94% | 76.15 | 0.0 | |||||||
| 07 | 05:35 | N 9 | 16.09 | Fair | CLR | 11 | 10 | 94% | 76.15 | 0.0 | |||||||
| 07 | 05:15 | Calm | 16.09 | Fair | CLR | 11 | 10 | 94% | 76.15 | 0.0 | |||||||
| 07 | 04:55 | Calm | 16.09 | Mostly Cloudy | SCT060 BKN110 | 12 | 10 | 88% | 76.12 | 0.0 | |||||||
| 07 | 04:30 | Calm | 16.09 | Overcast | BKN060 OVC110 | 12 | 10 | 88% | 76.12 | 0.0 | |||||||
| 07 | 04:15 | N 6 | 16.09 | Mostly Cloudy | BKN055 BKN120 | 12 | 10 | 88% | 76.12 | 0.0 | |||||||
| 07 | 03:55 | N 6 | 16.09 | Mostly Cloudy | SCT060 BKN075 BKN120 | 12 | 10 | 88% | 76.12 | 0.0 | |||||||
| 07 | 03:35 | Calm | 16.09 | Overcast | BKN060 OVC075 | 12 | 11 | 94% | 76.12 | 0.0 | |||||||
| 07 | 03:15 | N 7 | 16.09 | Thunderstorm in Vicinity | SCT043 OVC060 | 12 | 11 | 94% | 76.12 | 0.0 | |||||||
| 07 | 02:55 | Calm | 16.09 | Thunderstorm in Vicinity | OVC041 | 12 | 11 | 94% | 76.1 | 0.0 | |||||||
| 07 | 02:35 | N 7 | 16.09 | Overcast | OVC039 | 12 | 11 | 94% | 76.12 | 0.0 | |||||||
| 07 | 02:15 | Calm | 16.09 | Overcast | BKN039 OVC065 | 12 | 11 | 94% | 76.12 | 0.0 | |||||||
| 07 | 01:55 | Calm | 16.09 | Overcast | FEW042 BKN060 OVC070 | 12 | 11 | 94% | 76.15 | 0.0 | |||||||
| 07 | 01:35 | Calm | 16.09 | Overcast | OVC055 | 12 | 11 | 94% | 76.15 | 0.0 | |||||||
| 07 | 01:15 | Vrbl 6 | 16.09 | Overcast | OVC055 | 12 | 11 | 94% | 76.17 | 0.0 | |||||||
| 07 | 00:55 | N 7 | 16.09 | Thunderstorm in Vicinity | FEW017 FEW038 OVC060 | 12 | 11 | 94% | 76.15 | 0.0 | |||||||
| 07 | 00:35 | Vrbl 7 | 14.48 | Overcast | FEW016 FEW038 OVC060 | 12 | 11 | 94% | 76.12 | 0.0 | |||||||
| 07 | 00:15 | Calm | 16.09 | Overcast | FEW015 OVC060 | 13 | 11 | 88% | 76.17 | 0.0 | |||||||
| 06 | 23:55 | Calm | 16.09 | Thunderstorm | SCT014 OVC060 | 13 | 11 | 88% | 76.07 | 0.0 | |||||||
| 06 | 23:35 | Calm | 16.09 | Overcast | BKN015 OVC060 | 13 | 11 | 88% | 76.12 | 0.0 | |||||||
| 06 | 23:15 | Vrbl 7 | 16.09 | Overcast | OVC014 | 13 | 11 | 88% | 76.05 | 0.0 | |||||||
| 06 | 22:55 | Vrbl 9 | 16.09 | Overcast | OVC011 | 13 | 11 | 88% | 76.12 | 0.0 | |||||||
| 06 | 22:10 | Calm | 16.09 | Overcast | OVC010 | 13 | 11 | 88% | 76.12 | 0.0 | |||||||
| 06 | 21:55 | Vrbl 6 | 16.09 | Overcast | OVC010 | 13 | 11 | 88% | 76.15 | 0.0 | |||||||
| 06 | 21:35 | Vrbl 7 | 16.09 | Overcast | OVC010 | 13 | 11 | 88% | 76.1 | 0.0 | |||||||
| 06 | 21:15 | Vrbl 7 | 16.09 | Overcast | OVC009 | 13 | 12 | 94% | 76.02 | 0.0 | |||||||
| 06 | 20:55 | Vrbl 7 | 16.09 | Overcast | OVC009 | 13 | 12 | 94% | 76.05 | 0.0 | |||||||
| 06 | 20:35 | Vrbl 7 | 16.09 | Overcast | OVC010 | 13 | 12 | 94% | 76.05 | 0.0 | |||||||
| 06 | 20:15 | Vrbl 7 | 16.09 | Overcast | OVC010 | 13 | 12 | 94% | 76.05 | 0.0 | |||||||
| 06 | 19:55 | Vrbl 7 | 16.09 | Overcast | OVC010 | 13 | 12 | 94% | 76.02 | 0.0 | |||||||
| 06 | 19:35 | NE 6 | 16.09 | Overcast | OVC010 | 13 | 12 | 94% | 75.97 | 0.0 | |||||||
| 06 | 19:15 | Calm | 16.09 | Overcast | BKN010 OVC013 | 13 | 12 | 94% | 76.05 | 0.0 | |||||||
| 06 | 18:55 | N 7 | 16.09 | Overcast | OVC012 | 13 | 12 | 94% | 76.05 | 0.0 | |||||||
| 06 | 18:35 | N 9 | 16.09 | Overcast | OVC011 | 13 | 12 | 94% | 76 | 0.0 | |||||||
| 06 | 17:55 | Calm | 16.09 | Mostly Cloudy | BKN011 | 14 | 12 | 88% | 76.02 | 0.0 | |||||||
| 06 | 17:35 | Calm | 16.09 | Mostly Cloudy | BKN011 BKN065 | 14 | 13 | 94% | 75.97 | 0.0 | |||||||
| 06 | 17:15 | Vrbl 6 | 16.09 | Mostly Cloudy | BKN012 BKN060 | 14 | 13 | 94% | 76 | 0.0 | |||||||
| 06 | 16:35 | Calm | 16.09 | A Few Clouds | FEW012 FEW060 | 13 | 13 | 100% | 75.97 | 0.0 | |||||||
| 06 | 16:15 | Calm | 8.05 | Light Drizzle | CLR | 13 | 13 | 100% | 75.97 | 0.0 | |||||||
| 06 | 15:55 | NE 6 G 20 | 2.41 | Heavy Rain | SCT003 SCT009 BKN015 | 13 | 12 | 94% | 76.07 | 0.0 | |||||||
| 06 | 15:35 | Vrbl 9 G 24 | 2.01 | Rain | SCT007 BKN015 BKN035 | 13 | 12 | 94% | 76.07 | 0.0 | |||||||
| 06 | 15:15 | N 24 | 1.21 | Thunderstorm in Vicinity Rain | OVC007 | 13 | 12 | 94% | 76.07 | 0.0 | |||||||
| 06 | 14:55 | N 17 | 8.05 | Light Rain | FEW009 SCT013 | 13 | 12 | 94% | 76.05 | 0.0 | |||||||
| 06 | 14:35 | Vrbl 6 | 6.44 | Rain | FEW008 BKN013 | 14 | 13 | 94% | 76.07 | 0.0 | |||||||
| 06 | 14:15 | Vrbl 7 | 16.09 | Mostly Cloudy | BKN008 BKN012 BKN016 | 14 | 13 | 94% | 76.07 | 0.0 | |||||||
| 06 | 13:55 | Calm | 16.09 | Mostly Cloudy | FEW011 BKN017 | 14 | 13 | 94% | 76.07 | 0.0 | |||||||
| 06 | 13:35 | Vrbl 7 G 19 | 16.09 | Partly Cloudy | FEW006 SCT017 | 14 | 13 | 94% | 76.05 | 0.0 | |||||||
| 06 | 13:15 | N 9 | 9.66 | Light Rain | FEW005 FEW013 SCT018 | 14 | 13 | 94% | 76.05 | 0.0 | |||||||
| 06 | 12:55 | N 11 | 6.44 | Light Drizzle | FEW005 SCT015 | 13 | 12 | 94% | 76.05 | 0.0 | |||||||
| 06 | 12:35 | N 13 | 9.66 | Fog/Mist | CLR | 14 | 13 | 94% | 76.07 | 0.0 | |||||||
| 06 | 12:15 | Vrbl 11 G 22 | 2.82 | Light Rain | SCT006 | 13 | 13 | 100% | 76.07 | 0.0 | |||||||
| 06 | 11:55 | NW 13 | 3.22 | Fog/Mist | FEW006 FEW018 | 14 | 13 | 94% | 76.07 | 0.0 | |||||||
| 06 | 11:35 | Calm | 8.05 | Fog/Mist | FEW018 | 14 | 13 | 94% | 76.05 | 0.0 | |||||||
| 06 | 11:15 | Vrbl 9 | 3.22 | Light Drizzle | FEW017 | 13 | 13 | 100% | 76.02 | 0.0 | |||||||
| 06 | 10:55 | N 9 | 2.41 | Light Rain | NULL | 13 | 13 | 100% | 76 | 0.0 | |||||||
| 06 | 10:35 | Vrbl 7 G 19 | 6.44 | Light Drizzle | SCT015 | 13 | 13 | 100% | 76 | 0.0 | |||||||
| 06 | 10:15 | Calm | 6.44 | Light Drizzle | SCT006 SCT015 | 13 | 13 | 100% | 76 | 0.0 | |||||||
| 06 | 09:55 | N 19 | 12.87 | Mostly Cloudy | BKN006 BKN014 | 14 | 13 | 94% | 76 | 0.0 | |||||||
| 06 | 09:35 | Vrbl 9 | 1.61 | Rain | BKN005 BKN009 BKN014 | 14 | 13 | 94% | 75.95 | 0.0 | |||||||
| 06 | 09:15 | N 9 G 20 | 11.27 | Mostly Cloudy | BKN004 | 14 | 13 | 94% | 75.92 | 0.0 | |||||||
| 06 | 08:55 | NW 15 | 16.09 | Thunderstorm in Vicinity | OVC004 | 15 | 14 | 94% | 75.92 | 0.0 | |||||||
| 06 | 08:35 | N 11 | 16.09 | Overcast | BKN005 BKN040 OVC060 | 15 | 14 | 94% | 75.9 | 0.0 | |||||||
| 06 | 08:15 | Calm | 16.09 | Overcast | SCT005 BKN041 OVC048 | 15 | 14 | 94% | 75.84 | 0.0 | |||||||
| 06 | 07:55 | N 11 | 16.09 | Mostly Cloudy | BKN005 BKN028 BKN050 | 15 | 15 | 100% | 75.87 | 0.0 | 0.05 | ||||||
| 06 | 07:35 | Calm | 16.09 | Mostly Cloudy | SCT029 BKN055 BKN065 | 16 | 15 | 94% | 75.82 | 0.0 | |||||||
| 06 | 06:55 | Calm | 6.44 | Light Drizzle | SCT030 BKN046 OVC070 | 15 | 15 | 100% | 75.79 | 0.0 | 0.71 | ||||||
| 06 | 06:35 | Calm | 9.66 | Light Rain | SCT006 SCT028 BKN047 | 15 | 14 | 94% | 75.79 | 0.0 | |||||||
| 06 | 06:15 | Calm | 4.02 | Thunderstorm in Vicinity Drizzle | NULL | 15 | 14 | 94% | 75.79 | 0.0 | |||||||
| 06 | 05:55 | NW 7 | 4.83 | Thunderstorm Heavy Rain | FEW002 BKN017 OVC021 | 15 | 14 | 94% | 75.84 | 0.0 | 0.28 | ||||||
| 06 | 05:35 | Vrbl 6 | 16.09 | Thunderstorm in Vicinity | SCT006 OVC017 | 15 | 14 | 94% | 75.72 | 0.0 | |||||||
| 06 | 05:15 | N 15 | 14.48 | Overcast | BKN005 OVC014 | 16 | 15 | 94% | 75.72 | 0.0 | |||||||
| 06 | 04:50 | NW 15 | 4.02 | Heavy Rain | FEW003 BKN017 OVC025 | 18 | 16 | 88% | 75.69 | 0.0 | |||||||
| 06 | 04:35 | NW 20 | 6.44 | Light Rain | BKN016 OVC020 | 20 | 18 | 88% | 75.64 | 0.0 | |||||||
| 06 | 04:15 | SW 22 | 16.09 | Overcast | OVC020 | 24 | 20 | 78% | 24 | 75.62 | 0.0 | ||||||
| 06 | 03:55 | SW 20 G 31 | 16.09 | Overcast | OVC019 | 24 | 20 | 78% | 24 | 75.57 | 0.0 | 0.08 | |||||
| 06 | 03:35 | SW 19 G 33 | 16.09 | Overcast | OVC019 | 24 | 20 | 78% | 24 | 75.54 | 0.0 | ||||||
| 06 | 03:15 | SW 20 G 31 | 16.09 | Overcast | OVC021 | 24 | 20 | 78% | 24 | 75.54 | 0.0 | ||||||
| 06 | 02:55 | S 28 | 14.48 | Overcast | OVC021 | 24 | 20 | 78% | 24 | 75.51 | 0.0 | ||||||
| 06 | 02:35 | SW 20 G 33 | 16.09 | Overcast | OVC021 | 24 | 20 | 78% | 24 | 75.54 | 0.0 | ||||||
| 06 | 02:15 | SW 17 G 28 | 16.09 | Overcast | OVC022 | 24 | 19 | 74% | 25 | 75.54 | 0.0 | ||||||
| 06 | 01:55 | SW 19 G 28 | 16.09 | Overcast | BKN023 OVC027 | 24 | 19 | 74% | 25 | 75.57 | 0.0 | ||||||
| 06 | 01:35 | S 24 G 33 | 16.09 | Overcast | OVC025 | 24 | 19 | 74% | 25 | 75.54 | 0.0 | ||||||
| 06 | 01:15 | SW 20 G 33 | 16.09 | Overcast | BKN026 OVC031 | 24 | 19 | 74% | 25 | 75.57 | 0.0 | ||||||
| 06 | 00:50 | S 22 G 31 | 16.09 | Overcast | OVC026 | 24 | 19 | 74% | 25 | 75.59 | 0.0 | ||||||
| 06 | 00:35 | S 20 | 16.09 | Overcast | BKN026 BKN033 OVC070 | 24 | 19 | 74% | 25 | 75.62 | 0.0 | ||||||
| 06 | 00:15 | S 15 G 24 | 16.09 | Overcast | FEW029 SCT060 OVC070 | 23 | 18 | 74% | 75.57 | 0.0 | |||||||
| 05 | 23:55 | S 13 | 16.09 | Overcast | BKN029 BKN035 OVC055 | 23 | 18 | 74% | 75.59 | 0.0 | |||||||
| 05 | 23:35 | S 9 | 16.09 | Overcast | BKN029 OVC035 | 23 | 18 | 74% | 75.64 | 0.0 | |||||||
| 05 | 23:15 | S 9 | 16.09 | Overcast | BKN031 OVC042 | 23 | 18 | 74% | 75.64 | 0.0 | |||||||
| 05 | 22:55 | S 11 | 16.09 | Overcast | BKN034 BKN043 OVC065 | 23 | 18 | 74% | 75.64 | 0.0 | |||||||
| 05 | 22:35 | S 15 | 16.09 | Overcast | BKN037 OVC043 | 23 | 18 | 74% | 75.64 | 0.0 | |||||||
| 05 | 22:15 | S 11 | 16.09 | Overcast | BKN038 BKN048 OVC065 | 23 | 18 | 74% | 75.64 | 0.0 | |||||||
| 05 | 21:55 | S 11 | 16.09 | Overcast | BKN035 OVC065 | 23 | 18 | 74% | 75.67 | 0.0 | |||||||
| 05 | 21:35 | S 13 G 22 | 16.09 | Overcast | BKN036 BKN044 OVC065 | 23 | 18 | 74% | 75.62 | 0.0 | |||||||
| 05 | 21:15 | S 13 | 16.09 | Overcast | BKN034 BKN040 OVC050 | 23 | 18 | 74% | 75.62 | 0.0 | |||||||
| 05 | 20:55 | S 15 | 16.09 | Overcast | SCT034 BKN041 OVC050 | 22 | 18 | 78% | 75.62 | 0.0 | |||||||
| 05 | 20:35 | S 13 | 16.09 | Overcast | BKN039 OVC048 | 22 | 18 | 78% | 75.57 | 0.0 | |||||||
| 05 | 20:15 | S 7 | 16.09 | Overcast | OVC040 | 22 | 17 | 73% | 75.59 | 0.0 | |||||||
| 05 | 19:55 | SE 13 G 22 | 16.09 | Overcast | SCT043 BKN049 OVC065 | 22 | 17 | 73% | 75.57 | 0.0 | |||||||
| 05 | 19:35 | S 9 G 19 | 16.09 | Overcast | SCT038 BKN050 OVC065 | 22 | 17 | 73% | 75.57 | 0.0 | |||||||
| 05 | 19:15 | S 13 | 16.09 | Overcast | BKN038 OVC050 | 22 | 17 | 73% | 75.57 | 0.0 | |||||||
| 05 | 18:55 | S 15 | 16.09 | Overcast | OVC038 | 22 | 18 | 78% | 75.59 | 0.0 | |||||||
| 05 | 18:35 | S 13 | 16.09 | Overcast | BKN037 OVC046 | 22 | 18 | 78% | 75.59 | 0.0 | |||||||
| 05 | 18:15 | S 9 G 22 | 16.09 | Overcast | OVC037 | 22 | 18 | 78% | 75.62 | 0.0 | |||||||
| 05 | 17:55 | S 15 G 26 | 16.09 | Overcast | SCT024 OVC038 | 22 | 18 | 78% | 75.62 | 0.0 | |||||||
| 05 | 17:35 | S 19 | 16.09 | Overcast | BKN026 OVC033 | 23 | 18 | 74% | 75.62 | 0.0 | |||||||
| 05 | 17:15 | S 17 | 16.09 | Overcast | SCT027 BKN032 OVC065 | 23 | 18 | 74% | 75.62 | 0.0 | |||||||
| 05 | 16:55 | S 20 | 16.09 | Mostly Cloudy | BKN033 BKN043 BKN050 | 24 | 18 | 69% | 25 | 75.62 | 0.0 | ||||||
| 05 | 16:35 | S 24 | 16.09 | Mostly Cloudy | SCT033 BKN041 BKN050 | 23 | 18 | 74% | 75.62 | 0.0 | |||||||
| 05 | 16:15 | S 17 | 16.09 | Mostly Cloudy | BKN034 BKN065 | 23 | 18 | 74% | 75.64 | 0.0 | |||||||
| 05 | 15:55 | S 13 G 26 | 16.09 | Mostly Cloudy | FEW027 FEW031 BKN036 | 23 | 18 | 74% | 75.67 | 0.0 | |||||||
| 05 | 15:35 | S 13 G 24 | 16.09 | Overcast | OVC029 | 23 | 18 | 74% | 75.67 | 0.0 | |||||||
| 05 | 15:15 | S 20 | 16.09 | Overcast | OVC027 | 22 | 18 | 78% | 75.67 | 0.0 | |||||||
| 05 | 14:50 | S 17 G 26 | 14.48 | Overcast | OVC026 | 22 | 17 | 73% | 75.69 | 0.0 | |||||||
| 05 | 14:35 | S 20 G 39 | 16.09 | Overcast | OVC026 | 22 | 17 | 73% | 75.69 | 0.0 | |||||||
| 05 | 14:15 | S 19 | 16.09 | Overcast | OVC025 | 23 | 17 | 69% | 75.72 | 0.0 | |||||||
| 05 | 13:55 | S 20 | 16.09 | Overcast | OVC024 | 22 | 17 | 73% | 75.72 | 0.0 | |||||||
| 05 | 13:35 | S 13 | 16.09 | Overcast | OVC024 | 22 | 16 | 69% | 75.74 | 0.0 | |||||||
| 05 | 13:15 | SE 11 G 22 | 16.09 | Overcast | OVC024 | 21 | 16 | 73% | 75.74 | 0.0 | |||||||
| 05 | 12:55 | S 15 G 28 | 16.09 | Overcast | OVC025 | 21 | 16 | 73% | 75.77 | 0.0 | |||||||
| 05 | 12:35 | S 22 | 16.09 | Overcast | BKN025 BKN037 OVC043 | 21 | 16 | 73% | 75.77 | 0.0 | |||||||
| 05 | 11:55 | S 22 G 35 | 16.09 | Overcast | FEW027 BKN033 OVC046 | 21 | 16 | 73% | 75.82 | 0.0 | |||||||
| 05 | 11:35 | S 17 G 30 | 16.09 | Overcast | BKN028 OVC036 | 20 | 15 | 73% | 75.82 | 0.0 | |||||||
| 05 | 11:15 | S 17 G 30 | 16.09 | Mostly Cloudy | BKN030 | 19 | 15 | 78% | 75.82 | 0.0 | |||||||
| 05 | 10:55 | S 19 | 14.48 | Mostly Cloudy | BKN031 BKN040 BKN046 | 19 | 14 | 73% | 75.82 | 0.0 | |||||||
| 05 | 10:35 | S 15 | 14.48 | Overcast | SCT029 SCT034 OVC044 | 19 | 14 | 73% | 75.87 | 0.0 | |||||||
| 05 | 10:15 | S 17 | 16.09 | Overcast | SCT032 OVC042 | 19 | 13 | 68% | 75.84 | 0.0 | |||||||
| 05 | 09:55 | S 11 G 26 | 16.09 | Mostly Cloudy | BKN044 BKN050 | 19 | 13 | 68% | 75.84 | 0.0 | |||||||
| 05 | 09:35 | S 15 | 16.09 | Mostly Cloudy | FEW034 FEW041 BKN048 | 19 | 13 | 68% | 75.84 | 0.0 | |||||||
| 05 | 09:10 | Vrbl 7 | 16.09 | Overcast | FEW028 OVC034 | 19 | 13 | 68% | 75.84 | 0.0 | |||||||
| 05 | 08:55 | S 9 | 16.09 | Overcast | BKN033 OVC045 | 19 | 13 | 68% | 75.87 | 0.0 | |||||||
| 05 | 08:35 | S 13 | 16.09 | Mostly Cloudy | FEW034 BKN044 BKN055 | 19 | 13 | 68% | 75.84 | 0.0 | |||||||
| 05 | 08:15 | S 13 | 16.09 | Overcast | OVC043 | 18 | 12 | 68% | 75.84 | 0.0 | |||||||
| 05 | 07:35 | Calm | 16.09 | Fair | CLR | 17 | 12 | 73% | 75.84 | 0.0 | |||||||
| 05 | 07:15 | Calm | 16.09 | Fair | CLR | 17 | 12 | 73% | 75.82 | 0.0 | |||||||
| 05 | 06:55 | SW 11 | 16.09 | Fair | CLR | 17 | 11 | 68% | 75.79 | 0.0 | |||||||
| 05 | 06:15 | S 13 | 16.09 | Fair | CLR | 17 | 11 | 68% | 75.74 | 0.0 | |||||||
| 05 | 05:55 | S 17 G 28 | 16.09 | Fair | CLR | 17 | 11 | 68% | 75.72 | 0.0 | |||||||
| 05 | 05:35 | S 19 | 16.09 | A Few Clouds | FEW040 FEW045 | 17 | 11 | 68% | 75.69 | 0.0 | |||||||
| 05 | 05:15 | S 17 | 16.09 | Partly Cloudy | SCT041 SCT048 | 17 | 11 | 68% | 75.72 | 0.0 | |||||||
| 05 | 04:55 | S 17 | 16.09 | Partly Cloudy | SCT041 SCT048 | 17 | 11 | 68% | 75.72 | 0.0 | |||||||
| 05 | 04:35 | S 19 | 16.09 | A Few Clouds | FEW043 | 18 | 11 | 64% | 75.72 | 0.0 | |||||||
| 05 | 04:15 | S 19 | 16.09 | A Few Clouds | FEW043 | 18 | 11 | 64% | 75.72 | 0.0 | |||||||
| 05 | 03:55 | S 15 | 16.09 | Fair | CLR | 18 | 11 | 64% | 75.74 | 0.0 | |||||||
| 05 | 03:35 | S 11 | 16.09 | A Few Clouds | FEW046 | 18 | 11 | 64% | 75.77 | 0.0 | |||||||
| 05 | 03:15 | S 13 | 16.09 | Fair | CLR | 17 | 11 | 68% | 75.74 | 0.0 | |||||||
| 05 | 02:55 | S 11 | 16.09 | Fair | CLR | 17 | 11 | 68% | 75.77 | 0.0 | |||||||
| 05 | 02:35 | S 6 | 16.09 | A Few Clouds | FEW049 | 16 | 11 | 72% | 75.77 | 0.0 | |||||||
| 05 | 02:15 | Calm | 16.09 | Fair | CLR | 15 | 12 | 82% | 75.79 | 0.0 | |||||||
| 05 | 01:55 | Calm | 16.09 | Fair | CLR | 16 | 11 | 72% | 75.82 | 0.0 | |||||||
| 05 | 01:35 | Calm | 16.09 | Fair | CLR | 17 | 11 | 68% | 75.84 | 0.0 | |||||||
| 05 | 01:15 | SW 6 | 16.09 | Fair | CLR | 17 | 11 | 68% | 75.84 | 0.0 | |||||||
| 05 | 00:55 | SW 7 | 16.09 | Fair | CLR | 17 | 11 | 68% | 75.84 | 0.0 | |||||||
| 05 | 00:35 | SW 9 | 16.09 | Fair | CLR | 17 | 11 | 68% | 75.84 | 0.0 | |||||||
| 05 | 00:15 | S 9 | 16.09 | Fair | CLR | 17 | 11 | 68% | 75.84 | 0.0 | |||||||
| 04 | 23:55 | S 9 | 16.09 | Fair | CLR | 18 | 10 | 60% | 75.84 | 0.0 | |||||||
| 04 | 23:35 | S 7 | 16.09 | Fair | CLR | 17 | 11 | 68% | 75.84 | 0.0 | |||||||
| 04 | 23:15 | S 9 | 16.09 | Fair | CLR | 17 | 11 | 68% | 75.84 | 0.0 | |||||||
| 04 | 22:55 | Calm | 16.09 | Fair | CLR | 16 | 11 | 72% | 75.84 | 0.0 | |||||||
| 04 | 22:35 | Calm | 16.09 | Fair | CLR | 18 | 11 | 64% | 75.87 | 0.0 | |||||||
| 04 | 22:15 | S 6 | 16.09 | Fair | CLR | 18 | 11 | 64% | 75.84 | 0.0 | |||||||
| 04 | 21:55 | S 9 | 16.09 | Fair | CLR | 19 | 10 | 56% | 75.84 | 0.0 | |||||||
| 04 | 21:35 | S 6 | 16.09 | Fair | CLR | 18 | 11 | 64% | 75.84 | 0.0 | |||||||
| 04 | 21:15 | Calm | 16.09 | Fair | CLR | 19 | 10 | 56% | 75.84 | 0.0 | |||||||
| 04 | 20:55 | S 6 | 16.09 | Fair | CLR | 20 | 10 | 53% | 75.82 | 0.0 | |||||||
| 04 | 20:35 | S 6 | 16.09 | Fair | CLR | 20 | 10 | 53% | 75.79 | 0.0 | |||||||
| 04 | 20:15 | S 7 | 16.09 | Fair | CLR | 20 | 10 | 53% | 75.79 | 0.0 | |||||||
| 04 | 19:55 | S 9 | 16.09 | Fair | CLR | 21 | 10 | 50% | 75.79 | 0.0 | |||||||
| 04 | 19:35 | S 19 | 16.09 | Fair | CLR | 22 | 9 | 44% | 75.79 | 0.0 | |||||||
| 04 | 19:15 | S 17 | 16.09 | A Few Clouds | FEW065 | 23 | 9 | 41% | 75.79 | 0.0 | |||||||
| 04 | 18:55 | S 20 G 30 | 16.09 | Fair | CLR | 24 | 9 | 39% | 25 | 75.79 | 0.0 | ||||||
| 04 | 18:35 | SW 20 G 30 | 16.09 | A Few Clouds | FEW065 | 24 | 9 | 39% | 25 | 75.82 | 0.0 | ||||||
| 04 | 18:15 | SW 22 | 16.09 | A Few Clouds | FEW065 | 25 | 9 | 36% | 26 | 75.82 | 0.0 | ||||||
| 04 | 17:55 | SW 26 | 16.09 | Fair | CLR | 26 | 9 | 34% | 26 | 75.82 | 0.0 | ||||||
| 04 | 17:35 | SW 24 G 41 | 16.09 | Fair | CLR | 26 | 9 | 34% | 26 | 75.84 | 0.0 | ||||||
| 04 | 17:15 | S 24 G 41 | 16.09 | Fair | CLR | 26 | 9 | 34% | 26 | 75.82 | 0.0 | ||||||
| 04 | 16:55 | S 30 | 16.09 | Fair | CLR | 27 | 9 | 32% | 27 | 75.84 | 0.0 | ||||||
| 04 | 16:35 | SW 26 G 43 | 16.09 | Fair | CLR | 26 | 9 | 34% | 26 | 75.84 | 0.0 | ||||||
| 04 | 16:15 | S 28 | 16.09 | Fair | CLR | 26 | 9 | 34% | 26 | 75.84 | 0.0 | ||||||
| 04 | 15:55 | SW 24 G 37 | 16.09 | Fair | CLR | 27 | 9 | 32% | 27 | 75.87 | 0.0 | ||||||
| 04 | 15:35 | SW 24 | 16.09 | Fair | CLR | 27 | 10 | 34% | 27 | 75.9 | 0.0 | ||||||
| 04 | 15:15 | SW 20 G 44 | 16.09 | Fair | CLR | 27 | 9 | 32% | 27 | 75.92 | 0.0 | ||||||
| 04 | 14:55 | S 22 G 33 | 16.09 | Fair | CLR | 27 | 9 | 32% | 27 | 75.95 | 0.0 | ||||||
| 04 | 14:35 | S 26 G 39 | 16.09 | Fair | CLR | 27 | 9 | 32% | 27 | 75.97 | 0.0 | ||||||
| 04 | 14:15 | SW 26 G 43 | 16.09 | A Few Clouds | FEW065 | 27 | 10 | 34% | 27 | 76 | 0.0 | ||||||
| Date | Time (cdt) | Wind (kph) | Vis. (km) | Weather | Sky Cond. | Air | Dwpt | Max. | Min. | Relative Humidity | Wind Chill (°C) | Heat Index (°C) | altimeter (cm) | sea level (mb) | 1 hr | 3 hr | 6 hr |
| 6 hour | |||||||||||||||||
| Temperature (ºC) | Pressure | Precipitation (cm) | |||||||||||||||